GFSGBSN_925_thetae_273.txt.gz
Theta_e
318 318 318 318 318 318 318 318 319 319 319 319 319 318 318 317 314 313 312 310 310 311 314 315 317 315 317 318 320 318 320 326 326 326 330 334 335 336 342 348 348 349 348 347 348 346 347
319 319 318 319 319 318 319 319 319 319 319 319 319 319 319 319 318 316 314 312 311 311 313 315 316 314 318 319 318 319 321 319 326 329 330 333 333 333 345 348 349 348 348 347 347 347 344
320 320 320 320 320 320 320 319 319 319 319 320 320 320 319 319 319 318 315 313 312 312 314 316 314 315 318 318 318 318 319 318 319 325 324 326 330 332 345 348 347 347 348 347 348 348 345
320 320 320 319 319 319 320 319 320 320 320 320 319 319 319 319 319 319 316 314 312 313 315 315 313 317 317 317 318 319 319 319 321 321 322 322 329 342 345 346 346 348 346 349 346 348 344
320 320 320 320 320 319 319 319 319 320 320 320 319 320 319 320 319 319 316 314 313 316 315 313 317 316 318 318 319 322 322 321 321 320 322 327 332 344 345 347 346 346 346 350 348 348 346
320 320 319 320 320 320 320 319 319 319 320 320 319 320 320 320 319 319 315 313 319 318 317 319 321 317 316 318 318 320 320 322 322 323 329 331 335 342 345 345 343 342 344 348 349 347 349
319 319 319 320 320 320 320 320 320 319 319 320 319 319 320 320 319 317 314 315 320 320 320 318 316 315 315 318 319 320 319 321 321 323 329 330 337 339 339 342 342 341 344 348 348 347 349
320 320 320 320 319 320 321 321 321 320 319 319 319 319 320 320 320 315 315 318 318 318 324 321 319 318 317 318 322 322 319 323 323 323 327 333 340 337 332 336 336 342 345 348 349 348 349
314 316 317 318 318 320 320 321 321 320 320 320 319 319 320 321 318 316 315 316 317 317 323 323 320 321 321 321 322 323 319 320 323 323 324 337 341 331 334 340 342 346 347 347 348 352 352
313 313 314 316 318 317 320 321 321 321 320 320 320 319 319 320 316 317 316 318 316 318 323 320 320 321 320 321 322 322 319 322 322 322 326 331 332 333 334 338 341 343 343 345 350 350 349
314 313 313 314 317 318 321 321 321 321 320 320 320 319 319 320 318 317 314 315 318 314 319 318 320 319 319 322 319 321 317 320 323 324 327 331 333 335 338 338 342 344 344 347 348 349 349
317 314 313 313 315 317 320 322 321 320 320 320 320 319 319 317 316 317 316 317 315 322 319 322 322 323 323 322 319 318 319 319 321 325 326 330 327 331 337 334 341 340 342 342 342 345 348
320 320 314 313 314 316 319 320 321 320 320 320 319 319 319 316 318 315 317 317 325 322 319 326 324 323 323 322 321 319 320 320 323 325 328 323 326 324 328 329 339 340 342 347 347 348 347
320 321 319 314 314 316 319 321 319 319 320 319 319 320 318 316 316 316 316 325 325 320 325 324 324 321 322 320 321 319 319 321 317 322 325 331 332 325 327 329 333 340 340 344 350 347 346
320 320 321 316 314 315 318 320 319 319 319 319 320 318 316 318 319 316 323 328 325 321 325 324 325 323 322 319 319 319 320 321 321 320 324 326 330 324 327 331 332 337 341 337 343 341 345
320 320 321 317 314 315 318 320 319 319 319 319 318 314 319 319 319 317 326 324 325 321 325 324 326 324 324 323 319 319 320 320 319 319 321 323 327 325 326 332 334 335 336 340 342 347 348
321 323 322 318 314 314 318 319 320 320 319 319 313 326 319 318 316 324 324 326 324 323 324 324 325 323 324 327 320 319 320 320 318 318 319 321 322 323 322 328 332 336 337 338 340 341 342
322 322 322 319 315 314 318 319 320 319 318 319 315 331 319 317 324 319 326 324 320 323 323 325 324 325 325 325 325 319 320 320 318 318 319 320 322 324 324 320 320 334 335 337 334 340 340
319 321 321 321 317 315 317 320 320 318 318 316 320 319 319 318 322 322 321 323 322 327 328 325 325 324 324 327 328 323 322 320 316 318 321 319 322 323 322 320 321 323 331 336 336 339 345
317 319 321 320 319 315 317 319 320 318 318 316 317 337 328 321 319 325 329 329 331 329 329 329 330 325 325 325 325 328 327 326 317 319 329 323 319 323 323 327 326 329 331 334 335 339 339
316 317 319 320 320 317 316 319 320 318 317 315 316 334 331 331 329 329 329 331 333 335 332 331 330 327 328 335 324 326 326 328 328 335 321 321 323 323 323 323 324 325 329 333 335 334 336
315 317 318 320 320 319 316 319 320 318 317 316 322 325 324 329 328 331 328 334 334 334 335 336 333 335 333 336 325 333 332 332 336 326 320 318 326 322 323 320 322 325 327 330 332 332 335
314 316 317 319 320 320 316 319 319 317 317 317 315 316 322 323 331 334 333 332 332 332 331 334 336 334 335 330 334 335 334 333 331 332 331 324 325 326 326 324 324 326 327 329 329 332 333
314 316 317 318 319 320 317 319 318 317 317 317 315 317 324 327 327 332 334 330 330 330 330 331 331 333 333 331 330 330 330 330 329 332 328 330 332 330 330 330 329 328 325 328 329 330 332
313 315 316 317 319 320 317 319 318 317 316 317 316 317 323 328 325 325 325 326 326 326 328 329 331 332 331 332 334 335 335 335 336 329 326 326 332 332 337 334 330 329 338 337 337 334 334
312 314 315 316 318 319 318 318 318 316 317 317 316 315 318 325 325 323 324 324 327 329 329 328 327 327 331 332 336 339 335 336 339 338 335 329 329 336 330 335 332 333 340 340 340 335 338
313 314 314 316 317 319 318 317 318 316 317 317 316 315 317 324 323 322 324 324 324 327 329 327 326 332 329 336 337 338 337 338 340 341 343 342 343 337 333 335 333 329 339 339 342 335 341
313 313 314 315 316 318 319 317 318 317 316 318 316 316 317 321 322 321 321 324 324 325 326 325 329 331 333 340 338 339 340 343 345 345 344 342 342 344 341 339 339 339 339 343 343 342 341
312 313 313 314 316 317 319 317 317 317 316 317 316 315 315 316 321 318 320 322 322 322 324 325 329 330 330 337 337 342 347 342 344 340 341 344 340 342 343 343 342 341 340 339 338 341 341

GFSGBSN_925_thetae_276.txt.gz
Theta_e
319 319 319 319 319 319 319 319 318 319 319 320 319 319 319 319 318 317 315 313 313 313 313 314 316 316 321 324 324 319 321 326 331 335 329 335 340 340 345 348 350 351 350 349 349 347 352
320 319 320 320 320 319 319 319 319 319 319 319 319 319 319 319 319 319 318 315 313 313 313 314 316 315 323 322 320 319 321 321 334 333 335 337 337 336 344 347 350 350 350 348 348 348 351
320 319 320 320 319 320 320 319 320 320 320 320 320 320 320 319 319 319 318 316 314 313 313 314 316 316 321 321 320 319 321 322 323 331 334 331 332 334 342 348 348 349 351 349 349 349 349
319 319 320 319 320 320 320 319 320 320 320 320 320 320 320 320 319 319 319 317 315 313 314 316 314 324 320 318 319 320 321 323 323 325 325 326 329 341 345 348 348 348 348 350 349 348 347
319 319 319 320 320 320 320 320 320 320 320 320 320 320 320 320 320 319 318 314 313 316 315 314 321 321 321 319 321 322 323 325 327 325 325 328 333 342 346 348 347 345 347 349 350 349 348
320 319 319 320 319 320 320 320 321 320 319 319 320 320 320 321 320 319 315 314 319 318 319 322 322 322 321 322 321 322 323 325 328 328 330 332 337 341 343 344 345 345 346 347 349 349 349
319 319 319 319 319 319 320 320 320 321 320 320 320 319 320 320 320 317 317 318 325 325 324 325 320 320 319 321 322 323 323 325 327 329 335 338 341 339 338 340 341 342 345 347 348 348 349
314 315 316 316 318 318 318 319 321 321 320 320 320 320 320 321 321 316 318 324 323 321 327 326 325 324 322 322 323 324 323 328 328 330 332 338 343 338 337 339 340 342 345 346 347 348 350
313 313 313 314 315 317 318 321 321 321 321 320 320 320 319 321 319 319 320 322 319 320 328 326 325 325 325 323 323 324 324 327 328 328 329 337 340 339 338 338 341 342 344 345 347 349 351
318 314 313 313 313 315 316 321 321 321 321 320 320 320 319 320 321 321 323 320 318 320 328 324 323 324 324 324 323 324 323 325 327 328 329 332 337 340 338 337 340 342 343 344 346 351 351
320 319 314 313 313 313 315 319 321 321 320 321 320 319 319 320 321 322 319 318 320 321 326 323 324 323 324 323 323 324 323 324 326 326 328 330 334 340 339 338 338 341 344 346 347 348 347
320 320 321 315 313 313 315 317 320 321 320 320 319 319 320 320 319 320 318 319 321 326 323 325 325 326 324 323 323 323 323 323 324 324 325 327 332 337 338 338 337 341 345 345 346 346 349
319 320 320 321 315 313 314 316 320 320 320 320 319 320 319 318 324 317 319 323 328 325 323 327 327 326 325 323 323 323 324 323 323 325 327 325 330 333 336 338 338 339 342 346 350 349 348
319 319 320 320 319 314 314 316 320 320 321 320 320 320 319 317 319 318 321 328 328 322 328 327 326 327 327 324 323 323 324 324 324 324 326 327 327 331 332 335 337 338 340 343 352 349 347
319 319 320 320 320 315 314 315 320 320 321 320 320 321 320 320 319 318 327 329 325 322 328 326 328 326 327 324 322 323 323 324 324 324 327 328 329 330 331 331 334 337 341 339 343 342 345
320 319 319 322 320 315 314 317 319 320 321 319 320 321 326 320 320 321 328 326 327 325 326 325 329 327 328 324 322 323 323 323 324 324 325 327 328 330 331 333 335 336 337 341 342 346 347
318 322 323 322 320 316 315 317 319 320 321 319 321 329 321 319 319 325 326 325 326 325 326 325 327 326 327 329 325 324 323 323 323 324 324 324 325 327 329 332 336 338 338 337 337 337 339
317 320 322 322 321 317 315 317 319 319 321 321 324 332 322 320 324 325 325 324 319 324 324 324 325 325 328 330 329 326 324 323 323 324 323 324 324 326 327 328 332 335 337 338 342 341 338
317 317 319 321 321 320 315 317 319 319 319 320 327 329 322 323 325 325 325 324 323 324 325 325 325 327 329 331 332 328 326 325 323 323 324 324 323 325 326 327 328 331 335 337 338 337 336
316 316 317 319 321 320 316 316 319 320 319 317 325 335 327 325 326 326 326 326 328 328 328 328 328 330 330 333 331 332 329 328 324 324 328 327 324 324 326 327 328 330 332 334 337 339 336
317 316 316 317 319 319 319 316 319 319 319 317 324 337 336 328 326 330 330 331 330 330 331 332 332 331 334 336 331 331 330 330 329 333 323 324 324 325 325 325 327 329 331 333 335 335 336
317 315 315 317 318 320 320 316 319 319 318 321 328 331 330 335 333 333 329 334 333 331 332 331 337 336 337 339 333 332 337 337 339 327 328 325 326 326 326 325 325 326 329 332 334 335 333
316 314 315 316 318 319 320 316 319 318 318 323 323 322 326 327 335 337 335 335 334 334 332 334 337 337 338 337 336 337 337 338 338 339 331 328 326 329 328 326 325 326 327 328 330 330 330
314 314 314 316 317 319 320 317 319 318 318 320 321 323 328 329 332 335 335 334 334 333 334 333 333 335 337 335 335 336 335 337 337 336 336 330 329 330 329 330 329 327 329 329 329 329 329
313 313 313 315 316 318 320 317 319 318 317 320 320 323 327 330 329 329 330 332 331 330 330 331 332 333 333 334 339 337 335 338 338 336 335 335 337 337 335 330 328 330 331 332 333 331 331
312 312 313 315 316 318 319 318 318 317 317 318 320 319 323 329 326 326 328 328 330 330 330 332 331 330 332 337 339 340 334 333 336 339 337 333 336 338 337 334 331 330 338 341 339 332 340
312 313 313 314 315 317 319 319 317 317 317 318 319 318 322 328 327 327 326 327 326 328 330 331 331 332 333 338 338 335 334 337 336 335 341 340 340 334 335 336 333 338 341 341 338 341 343
311 312 313 314 314 316 318 319 317 318 317 318 319 318 320 326 326 325 325 326 326 327 329 330 331 335 334 339 337 336 337 338 340 337 339 338 337 336 339 339 338 338 342 343 346 345 346
310 310 312 313 314 315 317 318 318 317 317 316 318 317 317 319 325 322 323 324 324 325 327 327 331 333 332 339 340 341 339 340 336 337 346 341 336 339 336 338 346 342 342 342 342 344 345

GFSGBSN_925_thetae_279.txt.gz
Theta_e
320 320 320 319 319 319 319 319 320 320 320 319 320 320 319 319 319 319 318 317 315 314 313 314 315 317 320 329 326 323 326 326 328 336 341 337 340 342 343 347 349 351 351 350 349 348 350
320 320 319 320 319 319 320 320 320 320 320 320 320 320 320 320 319 319 319 318 316 315 314 313 315 316 327 326 324 324 326 328 335 338 338 338 341 339 341 345 347 347 348 349 348 349 350
320 320 320 320 320 320 320 319 320 320 320 320 320 320 320 320 320 319 319 318 317 315 314 314 315 319 325 325 323 324 326 329 335 338 338 339 335 337 340 346 345 347 351 350 350 349 349
320 320 320 320 319 320 320 320 320 320 320 320 320 320 320 320 320 320 319 318 316 315 314 315 316 325 326 322 322 323 326 329 330 330 333 333 332 337 343 345 347 348 349 352 348 348 348
320 320 320 320 319 319 319 319 320 321 320 320 320 320 320 320 321 320 317 315 314 315 316 316 323 326 325 321 321 324 327 330 333 333 332 331 335 339 343 346 352 348 349 349 350 347 348
319 319 319 319 319 318 319 319 320 321 321 321 320 321 321 320 320 320 316 315 320 317 319 324 324 326 323 323 323 325 327 329 332 335 334 336 339 340 341 345 350 346 346 348 349 350 349
313 313 314 315 316 317 317 320 321 321 321 321 321 320 321 320 321 319 317 323 328 329 329 329 327 323 322 323 323 324 327 329 330 333 336 339 343 340 338 341 341 342 343 348 348 347 349
314 313 312 312 313 314 316 318 321 321 321 321 320 320 321 321 321 316 321 327 327 325 327 327 326 325 322 323 325 325 326 330 330 331 333 338 342 341 339 338 340 342 346 350 349 348 348
321 318 314 313 313 313 314 315 321 321 321 321 321 321 320 321 320 321 323 326 324 325 329 328 327 326 325 324 324 325 326 328 330 330 332 336 339 339 340 337 340 342 345 347 347 346 347
320 320 320 315 313 313 313 314 316 321 321 321 320 320 320 321 323 325 326 325 323 326 331 329 325 325 325 325 324 325 326 328 330 329 330 333 333 339 341 337 339 341 345 344 346 349 364
320 320 320 320 317 314 313 314 315 321 320 321 321 320 320 320 323 325 325 323 324 327 334 325 325 325 326 324 326 325 326 326 327 328 329 330 330 335 341 338 338 342 342 344 346 347 348
319 319 320 320 321 318 313 313 314 319 320 321 321 320 320 324 324 324 322 324 326 329 329 327 327 324 325 325 325 326 326 326 327 328 328 328 331 333 336 337 339 339 340 344 346 346 350
319 319 319 320 320 321 316 314 314 318 321 321 321 320 319 320 328 324 322 327 330 330 326 327 327 327 326 324 324 325 325 324 324 324 326 327 327 330 334 337 339 340 342 346 353 355 360
318 319 319 320 320 320 317 314 314 317 321 321 321 321 323 321 324 323 323 330 332 327 326 329 328 328 327 326 324 324 326 325 325 326 327 327 328 327 333 337 339 341 341 343 350 356 354
317 320 319 320 320 321 317 314 315 317 321 321 321 326 324 326 323 323 327 329 329 328 327 328 328 328 328 327 325 325 325 326 326 326 327 328 329 329 330 334 335 339 340 338 340 340 345
316 318 320 321 322 321 318 315 316 318 321 321 320 325 326 327 325 324 327 327 328 327 328 328 329 329 330 328 325 325 326 326 326 327 327 328 330 330 331 331 332 334 338 340 339 345 344
316 317 320 323 322 322 319 315 316 319 321 321 323 328 327 325 324 325 326 327 327 327 326 328 329 330 329 330 326 325 326 326 326 327 327 326 328 329 331 332 334 334 337 339 341 348 345
316 317 317 320 322 321 321 316 316 319 321 324 327 329 325 323 326 326 327 326 318 326 325 327 327 329 329 330 331 327 328 326 326 326 326 326 327 327 330 331 332 334 337 337 340 342 338
316 316 317 317 320 321 320 317 316 319 319 321 330 329 327 323 328 327 327 327 326 324 323 325 327 328 330 332 333 332 329 328 326 325 326 326 325 326 327 330 330 331 335 338 335 338 341
315 317 317 316 317 320 319 319 316 319 319 319 329 332 331 326 326 329 328 327 326 325 324 326 327 329 330 332 332 334 329 328 328 325 331 328 326 325 327 329 329 330 332 335 337 339 339
313 317 316 315 316 318 320 320 316 318 319 318 329 330 340 330 327 327 328 329 330 328 328 327 329 330 331 334 334 333 332 332 331 332 327 325 326 327 326 327 328 329 330 332 335 337 338
313 317 315 315 316 318 320 320 317 318 319 322 331 331 333 334 335 332 327 332 333 330 329 331 330 331 330 335 338 335 332 332 335 334 328 327 326 327 327 327 327 327 328 330 332 333 335
315 315 314 314 316 318 320 320 317 319 319 327 328 327 329 330 332 334 333 332 332 332 333 331 335 334 336 337 337 337 337 338 338 338 331 328 327 328 328 328 327 328 328 330 332 333 335
313 314 314 314 316 317 319 320 317 319 319 323 326 326 331 330 330 333 333 334 334 333 335 333 334 337 337 337 337 336 335 334 335 337 336 334 330 329 330 330 330 328 329 328 330 331 332
311 312 313 313 315 316 318 320 317 318 318 321 324 326 331 332 330 329 331 334 334 333 334 332 331 332 335 337 339 337 334 332 334 334 335 334 331 331 331 332 331 329 330 329 330 331 331
311 312 312 313 315 316 318 319 318 317 318 319 323 324 326 332 330 329 330 330 331 331 333 332 330 332 333 337 337 339 336 334 335 335 333 333 335 338 340 337 333 331 331 331 332 334 335
311 311 312 313 314 315 317 319 318 317 318 319 322 323 324 330 329 330 329 329 329 330 332 332 332 333 333 338 338 336 340 334 339 338 338 334 335 335 337 342 340 338 339 336 334 344 346
310 310 311 313 314 315 316 318 319 317 318 318 321 321 322 328 328 328 329 329 329 329 332 333 333 331 334 337 336 336 336 339 342 337 344 339 339 335 336 336 341 344 338 338 348 346 346
310 310 311 312 314 315 315 317 319 318 318 316 320 321 320 322 327 325 325 325 327 328 331 331 332 336 336 339 336 336 346 341 340 343 335 342 337 344 337 343 339 344 346 343 343 344 345

GFSGBSN_925_thetae_282.txt.gz
Theta_e
320 320 320 320 320 320 320 320 320 320 320 320 320 320 320 320 319 319 319 318 318 317 315 315 314 315 320 327 327 326 327 323 327 329 338 343 341 341 343 350 348 346 351 349 348 347 348
320 320 320 320 320 320 321 320 320 320 320 320 320 320 320 320 320 320 319 318 318 317 316 315 314 315 327 327 326 326 327 331 333 334 339 342 340 339 340 343 348 347 347 347 348 348 348
320 319 320 320 319 320 320 321 321 321 320 320 320 321 321 321 321 320 319 318 317 316 315 315 315 319 325 325 325 325 327 329 335 339 341 339 338 336 338 345 347 348 350 351 348 347 349
320 320 320 319 319 319 319 319 320 321 321 321 320 321 321 321 320 320 319 317 315 315 315 316 316 324 326 325 324 324 326 329 332 337 338 338 335 336 337 345 348 352 350 358 349 345 347
318 318 318 317 317 318 318 320 321 321 321 321 321 321 321 321 321 321 320 316 315 315 316 316 320 325 326 323 323 323 325 328 331 333 336 336 336 338 339 346 353 353 356 354 350 347 347
313 313 313 313 314 315 316 316 320 321 321 321 321 321 321 321 321 321 318 317 318 318 323 324 324 327 327 325 324 323 325 328 331 334 336 338 339 340 339 346 349 350 350 350 350 349 347
319 315 313 313 312 313 313 314 316 320 321 320 321 321 321 321 321 321 316 324 329 329 326 328 328 323 325 324 325 325 327 328 331 332 336 336 340 342 339 342 344 342 344 350 350 346 347
320 321 320 314 313 313 313 313 314 316 321 320 321 321 321 321 321 319 318 329 328 326 328 329 331 328 324 324 325 325 325 328 330 331 334 336 339 340 341 340 339 339 347 349 347 348 346
321 321 320 321 318 314 313 313 313 314 320 321 321 321 320 321 321 321 325 324 326 325 328 328 327 328 327 325 324 326 326 327 329 330 331 333 336 340 339 341 337 338 344 349 348 347 348
321 321 321 320 320 320 316 313 313 313 316 320 321 321 321 320 323 327 326 327 325 326 330 329 328 327 327 326 325 326 327 327 328 330 330 331 333 335 338 340 337 338 343 345 345 346 351
319 319 319 320 320 320 321 316 314 313 313 320 321 321 321 321 323 325 326 325 325 327 336 329 328 326 326 326 326 325 327 326 327 329 330 330 330 333 334 338 339 337 339 341 344 345 350
318 319 319 319 320 320 320 320 315 314 313 319 321 322 321 325 324 326 325 323 327 330 330 328 328 327 325 326 325 327 325 327 327 328 329 329 330 331 331 334 338 338 339 340 342 347 362
317 318 319 319 319 320 320 320 317 315 313 318 321 322 321 320 328 326 324 326 330 331 328 328 328 326 325 325 325 326 325 325 325 325 326 328 329 329 331 332 336 337 340 343 347 362 367
317 317 319 319 320 320 321 320 317 315 314 320 321 321 323 323 325 326 324 327 333 329 327 329 329 329 327 326 325 325 326 326 325 325 326 327 327 328 328 331 335 337 340 341 351 354 363
316 317 318 320 320 321 322 320 317 315 314 320 322 325 328 326 325 324 326 328 330 331 329 328 329 328 329 328 327 325 325 326 327 325 325 326 328 330 329 329 333 338 340 339 338 338 344
316 316 317 320 323 321 322 321 317 315 315 321 320 325 327 327 326 325 326 326 327 329 328 329 329 329 329 329 328 327 326 326 326 327 327 326 327 330 330 329 331 333 336 339 339 344 345
316 316 317 317 320 322 321 320 319 315 317 322 323 333 328 329 326 327 326 324 326 328 328 327 328 329 331 331 329 328 326 327 327 327 328 327 326 328 331 331 331 333 332 335 337 343 346
315 315 317 317 317 319 321 320 319 316 320 325 327 333 330 328 327 326 326 325 324 327 328 326 327 329 330 330 331 329 327 327 328 327 326 328 326 326 328 331 332 332 333 333 338 343 343
314 315 316 317 316 317 320 320 319 316 319 321 331 332 330 327 326 326 326 326 327 327 327 326 325 326 327 329 331 332 331 329 329 327 326 327 327 326 327 328 331 332 332 335 335 336 341
310 313 316 317 316 316 317 319 320 316 319 320 330 332 331 329 327 327 330 330 328 327 325 324 325 327 328 329 331 333 334 331 329 327 329 326 326 326 326 329 329 330 330 332 334 340 338
309 311 316 317 315 315 317 320 320 317 319 320 329 331 335 341 328 326 327 329 329 328 328 327 325 327 329 331 332 332 332 331 330 335 327 325 325 327 326 327 328 329 329 329 331 335 339
309 313 317 315 314 316 318 319 320 318 319 322 332 333 333 335 335 335 326 329 331 331 330 330 328 328 328 330 331 334 337 335 332 333 331 328 328 326 326 327 327 327 328 330 330 332 334
313 315 315 314 314 316 317 319 320 318 319 328 329 329 332 329 330 331 333 332 333 331 333 333 331 334 329 333 334 338 338 338 340 342 340 339 329 327 328 327 327 328 328 328 329 330 331
311 312 313 313 314 315 317 318 321 318 319 322 326 328 331 334 331 331 331 333 336 335 335 332 334 332 335 335 336 337 337 337 337 336 335 337 339 331 329 330 331 329 330 329 328 330 332
311 311 312 313 313 314 316 318 320 319 318 320 323 326 330 335 333 332 331 331 335 335 333 333 333 333 332 332 334 338 336 334 333 331 335 336 341 339 332 330 331 331 330 329 329 329 330
311 312 312 312 313 315 316 318 320 319 317 319 323 325 327 331 333 331 332 331 331 331 332 331 331 330 330 333 335 343 338 333 333 331 330 332 335 338 334 332 334 343 343 333 331 329 335
311 311 311 311 313 314 315 317 319 319 317 318 321 323 325 330 329 330 332 333 331 332 331 331 334 331 331 333 335 335 335 337 337 339 340 343 344 340 338 341 338 346 345 344 333 347 345
310 310 310 311 313 314 315 316 318 319 317 318 322 323 324 328 328 328 329 331 331 332 333 333 333 332 332 334 332 333 336 346 340 339 343 343 346 344 344 342 344 342 345 352 346 342 348
309 309 310 311 311 313 314 316 317 319 317 317 320 323 322 323 326 324 325 326 328 329 331 332 334 334 336 338 338 340 347 346 342 346 339 347 345 343 340 344 343 342 345 340 338 340 342